Saint Bonnet de Bellac- Haute Vienne - France
Donnes mto: samedi, 27/10/2012
Date Horaire Temp. E. Hum. E. P.atmo. Pluie Vent Direction Direction Ensoleilleme Solaire P. de rose Temp au vent Rafales
27/10/2012 00:00 12,5 C 92 % 1001,6 hPa 0,0 mm 0,0 km/h (0 Bft) N-NE 22 0 min 0 W/m 11,2 C 12,5 C 0,0 km/h (0 Bft)
27/10/2012 00:10 12,5 C 92 % 1001,6 hPa 0,0 mm 0,0 km/h (0 Bft) N-NE 22 0 min 0 W/m 11,2 C 12,5 C 0,0 km/h (0 Bft)
27/10/2012 00:20 12,6 C 92 % 1001,4 hPa 0,0 mm 0,0 km/h (0 Bft) N-NE 22 0 min 0 W/m 11,3 C 12,6 C 0,0 km/h (0 Bft)
27/10/2012 00:30 12,6 C 92 % 1001,4 hPa 0,0 mm 0,0 km/h (0 Bft) N-NE 22 0 min 0 W/m 11,3 C 12,6 C 3,2 km/h (1 Bft)
27/10/2012 00:40 12,8 C 92 % 1001,4 hPa 0,0 mm 0,7 km/h (0 Bft) E-NE 67 0 min 0 W/m 11,5 C 12,8 C 3,6 km/h (1 Bft)
27/10/2012 00:50 12,9 C 92 % 1001,4 hPa 0,0 mm 1,1 km/h (1 Bft) E-NE 67 0 min 0 W/m 11,6 C 12,9 C 2,9 km/h (1 Bft)
27/10/2012 01:00 13,0 C 92 % 1001,4 hPa 0,0 mm 0,4 km/h (0 Bft) NE 45 0 min 0 W/m 11,7 C 13,0 C 3,6 km/h (1 Bft)
27/10/2012 01:10 13,1 C 92 % 1001,3 hPa 0,0 mm 1,1 km/h (1 Bft) NE 45 0 min 0 W/m 11,8 C 13,1 C 3,2 km/h (1 Bft)
27/10/2012 01:20 13,2 C 92 % 1001,2 hPa 0,0 mm 0,0 km/h (0 Bft) E 90 0 min 0 W/m 11,9 C 13,2 C 0,0 km/h (0 Bft)
27/10/2012 01:30 13,3 C 92 % 1001,0 hPa 0,0 mm 1,1 km/h (1 Bft) E-NE 67 0 min 0 W/m 12,0 C 13,3 C 2,9 km/h (1 Bft)
27/10/2012 01:40 13,4 C 92 % 1001,0 hPa 0,0 mm 1,1 km/h (1 Bft) E 90 0 min 0 W/m 12,1 C 13,4 C 3,2 km/h (1 Bft)
27/10/2012 01:50 13,4 C 92 % 1000,9 hPa 0,0 mm 1,8 km/h (1 Bft) E-SE 112 0 min 0 W/m 12,1 C 13,4 C 4,3 km/h (1 Bft)
27/10/2012 02:00 13,4 C 92 % 1000,7 hPa 0,0 mm 0,0 km/h (0 Bft) E-NE 67 0 min 0 W/m 12,1 C 13,4 C 0,0 km/h (0 Bft)
27/10/2012 02:10 13,5 C 92 % 1000,7 hPa 0,0 mm 0,7 km/h (0 Bft) E-NE 67 0 min 0 W/m 12,2 C 13,5 C 4,0 km/h (1 Bft)
27/10/2012 02:20 13,6 C 93 % 1000,6 hPa 0,0 mm 0,4 km/h (0 Bft) E-NE 67 0 min 0 W/m 12,5 C 13,6 C 4,3 km/h (1 Bft)
27/10/2012 02:30 13,7 C 93 % 1000,5 hPa 0,0 mm 0,0 km/h (0 Bft) E-SE 112 0 min 0 W/m 12,6 C 13,7 C 0,0 km/h (0 Bft)
27/10/2012 02:40 13,8 C 92 % 1000,4 hPa 0,0 mm 4,3 km/h (1 Bft) E 90 0 min 0 W/m 12,5 C 13,8 C 4,3 km/h (1 Bft)
27/10/2012 02:50 13,9 C 92 % 1000,4 hPa 0,0 mm 0,4 km/h (0 Bft) E-NE 67 0 min 0 W/m 12,6 C 13,9 C 3,2 km/h (1 Bft)
27/10/2012 03:00 14,0 C 92 % 1000,3 hPa 0,0 mm 0,7 km/h (0 Bft) E-SE 112 0 min 0 W/m 12,7 C 14,0 C 4,0 km/h (1 Bft)
27/10/2012 03:10 14,2 C 92 % 1000,2 hPa 0,0 mm 1,1 km/h (1 Bft) N-NE 22 0 min 0 W/m 12,9 C 14,2 C 4,0 km/h (1 Bft)
27/10/2012 03:20 14,4 C 92 % 1000,2 hPa 0,0 mm 1,1 km/h (1 Bft) NE 45 0 min 0 W/m 13,1 C 14,4 C 4,3 km/h (1 Bft)
27/10/2012 03:30 14,6 C 91 % 1000,0 hPa 0,0 mm 0,0 km/h (0 Bft) NE 45 0 min 0 W/m 13,1 C 14,6 C 0,0 km/h (0 Bft)
27/10/2012 03:40 14,8 C 91 % 999,9 hPa 0,0 mm 1,8 km/h (1 Bft) NE 45 0 min 0 W/m 13,3 C 14,8 C 4,3 km/h (1 Bft)
27/10/2012 03:50 15,0 C 91 % 999,8 hPa 0,0 mm 0,7 km/h (0 Bft) NE 45 0 min 0 W/m 13,5 C 15,0 C 3,2 km/h (1 Bft)
27/10/2012 04:00 15,2 C 91 % 999,7 hPa 0,0 mm 0,0 km/h (0 Bft) N-NE 22 0 min 0 W/m 13,7 C 15,2 C 1,8 km/h (1 Bft)
27/10/2012 04:10 15,3 C 90 % 999,5 hPa 0,0 mm 1,4 km/h (1 Bft) N-NE 22 0 min 0 W/m 13,7 C 15,3 C 4,0 km/h (1 Bft)
27/10/2012 04:20 15,4 C 89 % 999,3 hPa 0,0 mm 3,2 km/h (1 Bft) E-NE 67 0 min 0 W/m 13,6 C 15,4 C 6,5 km/h (2 Bft)
27/10/2012 04:30 15,3 C 89 % 999,2 hPa 0,0 mm 0,4 km/h (0 Bft) N-NE 22 0 min 0 W/m 13,5 C 15,3 C 4,0 km/h (1 Bft)
27/10/2012 04:40 15,2 C 88 % 999,1 hPa 0,0 mm 1,4 km/h (1 Bft) N-NE 22 0 min 0 W/m 13,2 C 15,2 C 3,6 km/h (1 Bft)
27/10/2012 04:50 15,2 C 88 % 998,9 hPa 0,0 mm 3,6 km/h (1 Bft) N-NE 22 0 min 0 W/m 13,2 C 15,2 C 7,9 km/h (2 Bft)
27/10/2012 05:00 15,1 C 88 % 998,8 hPa 0,0 mm 5,0 km/h (1 Bft) N-NE 22 0 min 0 W/m 13,1 C 15,1 C 8,6 km/h (2 Bft)
27/10/2012 05:10 15,1 C 88 % 998,5 hPa 0,0 mm 7,2 km/h (2 Bft) N 360 0 min 0 W/m 13,1 C 15,1 C 12,2 km/h (2 Bft)
27/10/2012 05:20 15,1 C 88 % 998,4 hPa 0,0 mm 2,5 km/h (1 Bft) NE 45 0 min 0 W/m 13,1 C 15,1 C 6,8 km/h (2 Bft)
27/10/2012 05:30 15,2 C 88 % 998,3 hPa 0,0 mm 1,4 km/h (1 Bft) NE 45 0 min 0 W/m 13,2 C 15,2 C 1,4 km/h (1 Bft)
27/10/2012 05:40 15,1 C 88 % 998,2 hPa 0,0 mm 0,7 km/h (0 Bft) N-NE 22 0 min 0 W/m 13,1 C 15,1 C 4,0 km/h (1 Bft)
27/10/2012 05:50 14,9 C 87 % 998,2 hPa 0,0 mm 2,5 km/h (1 Bft) N 360 0 min 0 W/m 12,8 C 14,9 C 4,7 km/h (1 Bft)
27/10/2012 06:00 14,9 C 88 % 998,0 hPa 0,0 mm 4,7 km/h (1 Bft) N-NE 22 0 min 0 W/m 12,9 C 14,9 C 10,8 km/h (2 Bft)
27/10/2012 06:10 14,8 C 88 % 997,9 hPa 0,0 mm 1,4 km/h (1 Bft) N 360 0 min 0 W/m 12,8 C 14,8 C 1,4 km/h (1 Bft)
27/10/2012 06:20 14,8 C 88 % 997,9 hPa 0,0 mm 0,0 km/h (0 Bft) NE 45 0 min 0 W/m 12,8 C 14,8 C 0,0 km/h (0 Bft)
27/10/2012 06:30 14,6 C 88 % 997,8 hPa 0,0 mm 2,9 km/h (1 Bft) E-NE 67 0 min 0 W/m 12,6 C 14,6 C 5,8 km/h (2 Bft)
27/10/2012 06:40 14,6 C 88 % 997,7 hPa 0,0 mm 4,7 km/h (1 Bft) N 360 0 min 0 W/m 12,6 C 14,6 C 10,8 km/h (2 Bft)
27/10/2012 06:50 14,4 C 88 % 997,7 hPa 0,0 mm 2,2 km/h (1 Bft) N-NO 337 0 min 0 W/m 12,4 C 14,4 C 4,0 km/h (1 Bft)
27/10/2012 07:00 14,3 C 88 % 997,6 hPa 0,0 mm 2,2 km/h (1 Bft) N-NE 22 0 min 0 W/m 12,3 C 14,3 C 3,2 km/h (1 Bft)
27/10/2012 07:10 14,0 C 88 % 997,5 hPa 0,0 mm 5,4 km/h (2 Bft) N-NE 22 0 min 0 W/m 12,0 C 14,0 C 5,4 km/h (2 Bft)
27/10/2012 07:20 13,8 C 88 % 997,6 hPa 0,0 mm 1,1 km/h (1 Bft) N-NE 22 0 min 0 W/m 11,8 C 13,8 C 4,3 km/h (1 Bft)
27/10/2012 07:30 13,7 C 88 % 997,3 hPa 0,0 mm 5,0 km/h (1 Bft) N 360 0 min 0 W/m 11,7 C 13,7 C 5,8 km/h (2 Bft)
27/10/2012 07:40 13,5 C 88 % 997,3 hPa 0,0 mm 4,3 km/h (1 Bft) N-NE 22 0 min 0 W/m 11,6 C 13,5 C 10,1 km/h (2 Bft)
27/10/2012 07:50 13,4 C 89 % 997,3 hPa 0,0 mm 0,4 km/h (0 Bft) N-NE 22 0 min 0 W/m 11,6 C 13,4 C 0,4 km/h (0 Bft)
27/10/2012 08:00 13,3 C 89 % 997,3 hPa 0,0 mm 1,4 km/h (1 Bft) N 360 0 min 0 W/m 11,5 C 13,3 C 3,6 km/h (1 Bft)
27/10/2012 08:10 13,2 C 89 % 997,1 hPa 0,0 mm 0,7 km/h (0 Bft) N 360 0 min 0 W/m 11,4 C 13,2 C 3,2 km/h (1 Bft)
27/10/2012 08:20 13,1 C 90 % 997,1 hPa 0,0 mm 6,5 km/h (2 Bft) N 360 0 min 0 W/m 11,5 C 13,1 C 7,2 km/h (2 Bft)
27/10/2012 08:30 12,8 C 90 % 997,0 hPa 0,0 mm 3,6 km/h (1 Bft) N-NE 22 0 min 0 W/m 11,2 C 12,8 C 4,0 km/h (1 Bft)
27/10/2012 08:40 12,7 C 90 % 997,0 hPa 0,0 mm 0,7 km/h (0 Bft) N-NE 22 0 min 0 W/m 11,1 C 12,7 C 0,7 km/h (0 Bft)
27/10/2012 08:50 12,6 C 90 % 996,9 hPa 0,0 mm 2,2 km/h (1 Bft) N 360 0 min 0 W/m 11,0 C 12,6 C 6,5 km/h (2 Bft)
27/10/2012 09:00 12,5 C 90 % 996,7 hPa 0,0 mm 0,0 km/h (0 Bft) N-NE 22 0 min 0 W/m 10,9 C 12,5 C 2,9 km/h (1 Bft)
27/10/2012 09:10 12,3 C 91 % 996,8 hPa 0,1 mm 0,7 km/h (0 Bft) NE 45 0 min 0 W/m 10,9 C 12,3 C 2,9 km/h (1 Bft)
27/10/2012 09:20 12,2 C 91 % 996,6 hPa 0,1 mm 4,0 km/h (1 Bft) N 360 0 min 0 W/m 10,8 C 12,2 C 7,9 km/h (2 Bft)
27/10/2012 09:30 12,1 C 91 % 996,7 hPa 0,1 mm 4,3 km/h (1 Bft) N 360 0 min 0 W/m 10,7 C 12,1 C 10,1 km/h (2 Bft)
27/10/2012 09:40 11,9 C 91 % 996,7 hPa 0,1 mm 2,2 km/h (1 Bft) N-NE 22 0 min 0 W/m 10,5 C 11,9 C 7,2 km/h (2 Bft)
27/10/2012 09:50 11,8 C 92 % 996,7 hPa 0,1 mm 5,8 km/h (2 Bft) N 360 0 min 0 W/m 10,5 C 11,8 C 5,8 km/h (2 Bft)
27/10/2012 10:00 11,7 C 92 % 996,8 hPa 0,1 mm 2,5 km/h (1 Bft) N-NO 337 0 min 0 W/m 10,4 C 11,7 C 6,5 km/h (2 Bft)
27/10/2012 10:10 11,6 C 92 % 996,8 hPa 0,0 mm 0,0 km/h (0 Bft) N 360 0 min 0 W/m 10,3 C 11,6 C 3,6 km/h (1 Bft)
27/10/2012 10:20 11,4 C 91 % 996,8 hPa 0,1 mm 0,0 km/h (0 Bft) N-NE 22 0 min 0 W/m 10,0 C 11,4 C 0,0 km/h (0 Bft)
27/10/2012 10:30 11,4 C 91 % 997,0 hPa 0,0 mm 3,2 km/h (1 Bft) N-NE 22 0 min 0 W/m 10,0 C 11,4 C 4,3 km/h (1 Bft)
27/10/2012 10:40 11,2 C 92 % 997,0 hPa 0,0 mm 3,2 km/h (1 Bft) N 360 0 min 0 W/m 9,9 C 11,2 C 13,3 km/h (3 Bft)
27/10/2012 10:50 11,1 C 92 % 997,0 hPa 0,0 mm 1,4 km/h (1 Bft) N 360 0 min 0 W/m 9,8 C 11,1 C 2,9 km/h (1 Bft)
27/10/2012 11:00 11,0 C 92 % 997,0 hPa 0,0 mm 2,2 km/h (1 Bft) N 360 0 min 0 W/m 9,8 C 11,0 C 2,2 km/h (1 Bft)
27/10/2012 11:10 10,9 C 92 % 997,0 hPa 0,0 mm 4,7 km/h (1 Bft) N 360 0 min 0 W/m 9,7 C 10,9 C 10,8 km/h (2 Bft)
27/10/2012 11:20 10,9 C 92 % 997,0 hPa 0,0 mm 2,2 km/h (1 Bft) N 360 0 min 0 W/m 9,7 C 10,9 C 3,2 km/h (1 Bft)
27/10/2012 11:30 10,8 C 93 % 997,0 hPa 0,0 mm 0,7 km/h (0 Bft) NE 45 0 min 0 W/m 9,7 C 10,8 C 0,7 km/h (0 Bft)
27/10/2012 11:40 10,8 C 93 % 997,0 hPa 0,0 mm 5,8 km/h (2 Bft) N-NE 22 0 min 0 W/m 9,7 C 10,8 C 11,9 km/h (2 Bft)
27/10/2012 11:50 10,6 C 93 % 996,9 hPa 0,0 mm 3,2 km/h (1 Bft) N 360 0 min 0 W/m 9,5 C 10,6 C 3,2 km/h (1 Bft)
27/10/2012 12:00 10,5 C 93 % 996,9 hPa 0,1 mm 6,5 km/h (2 Bft) N-NE 22 0 min 0 W/m 9,4 C 10,5 C 9,0 km/h (2 Bft)
27/10/2012 12:10 10,3 C 93 % 996,9 hPa 0,0 mm 4,3 km/h (1 Bft) N-NE 22 0 min 0 W/m 9,2 C 10,3 C 10,1 km/h (2 Bft)
27/10/2012 12:20 10,2 C 93 % 997,0 hPa 0,0 mm 0,7 km/h (0 Bft) NE 45 0 min 0 W/m 9,1 C 10,2 C 3,2 km/h (1 Bft)
27/10/2012 12:30 10,1 C 93 % 997,0 hPa 0,0 mm 0,0 km/h (0 Bft) N 360 0 min 0 W/m 9,0 C 10,1 C 0,0 km/h (0 Bft)
27/10/2012 12:40 9,9 C 93 % 997,0 hPa 0,0 mm 2,5 km/h (1 Bft) NE 45 0 min 0 W/m 8,8 C 9,9 C 3,6 km/h (1 Bft)
27/10/2012 12:50 9,9 C 93 % 997,0 hPa 0,0 mm 4,7 km/h (1 Bft) N 360 0 min 0 W/m 8,8 C 9,7 C 7,9 km/h (2 Bft)
27/10/2012 13:00 9,9 C 93 % 997,0 hPa 0,0 mm 1,4 km/h (1 Bft) N-NE 22 0 min 0 W/m 8,8 C 9,9 C 4,3 km/h (1 Bft)
27/10/2012 13:10 9,9 C 93 % 997,1 hPa 0,0 mm 3,6 km/h (1 Bft) N 360 0 min 0 W/m 8,8 C 9,9 C 7,2 km/h (2 Bft)
27/10/2012 13:20 9,9 C 93 % 997,0 hPa 0,0 mm 2,9 km/h (1 Bft) E-NE 67 0 min 0 W/m 8,8 C 9,9 C 7,2 km/h (2 Bft)
27/10/2012 13:30 9,9 C 93 % 997,0 hPa 0,0 mm 2,9 km/h (1 Bft) N-NO 337 0 min 0 W/m 8,8 C 9,9 C 7,6 km/h (2 Bft)
27/10/2012 13:40 10,1 C 93 % 997,0 hPa 0,0 mm 4,3 km/h (1 Bft) NE 45 0 min 0 W/m 9,0 C 10,1 C 12,6 km/h (3 Bft)
27/10/2012 13:50 10,1 C 93 % 997,0 hPa 0,0 mm 5,8 km/h (2 Bft) N-NE 22 0 min 0 W/m 9,0 C 10,1 C 7,6 km/h (2 Bft)
27/10/2012 14:00 10,1 C 93 % 997,0 hPa 0,0 mm 2,2 km/h (1 Bft) NE 45 0 min 0 W/m 9,0 C 10,1 C 2,2 km/h (1 Bft)
27/10/2012 14:10 10,2 C 94 % 996,9 hPa 0,0 mm 0,0 km/h (0 Bft) NE 45 0 min 0 W/m 9,3 C 10,2 C 0,0 km/h (0 Bft)
27/10/2012 14:20 10,2 C 94 % 996,9 hPa 0,0 mm 1,4 km/h (1 Bft) N-NE 22 0 min 0 W/m 9,3 C 10,2 C 3,6 km/h (1 Bft)
27/10/2012 14:30 10,3 C 94 % 997,0 hPa 0,0 mm 4,0 km/h (1 Bft) N-NE 22 0 min 0 W/m 9,4 C 10,3 C 10,4 km/h (2 Bft)
27/10/2012 14:40 10,3 C 94 % 997,1 hPa 0,1 mm 8,3 km/h (2 Bft) N-NO 337 0 min 0 W/m 9,4 C 10,3 C 8,3 km/h (2 Bft)
27/10/2012 14:50 10,1 C 94 % 997,2 hPa 0,0 mm 7,2 km/h (2 Bft) N-NE 22 0 min 0 W/m 9,2 C 10,1 C 21,2 km/h (4 Bft)
27/10/2012 15:00 9,9 C 94 % 997,1 hPa 0,0 mm 9,4 km/h (2 Bft) N-NE 22 0 min 0 W/m 9,0 C 8,6 C 19,4 km/h (3 Bft)
27/10/2012 15:10 9,8 C 94 % 997,2 hPa 0,0 mm 4,0 km/h (1 Bft) NE 45 0 min 0 W/m 8,9 C 9,8 C 9,7 km/h (2 Bft)
27/10/2012 15:20 9,6 C 94 % 997,2 hPa 0,0 mm 15,8 km/h (3 Bft) N-NE 22 0 min 0 W/m 8,7 C 7,3 C 26,3 km/h (4 Bft)
27/10/2012 15:30 9,5 C 94 % 997,4 hPa 0,0 mm 12,2 km/h (2 Bft) N 360 0 min 0 W/m 8,6 C 7,7 C 18,7 km/h (3 Bft)
27/10/2012 15:40 9,4 C 94 % 997,5 hPa 0,0 mm 9,7 km/h (2 Bft) O 270 0 min 0 W/m 8,5 C 8,0 C 15,8 km/h (3 Bft)
27/10/2012 15:50 9,3 C 94 % 997,6 hPa 0,0 mm 7,6 km/h (2 Bft) N-NO 337 0 min 0 W/m 8,4 C 8,3 C 12,2 km/h (2 Bft)
27/10/2012 16:00 9,2 C 94 % 997,7 hPa 0,1 mm 9,4 km/h (2 Bft) N 360 0 min 0 W/m 8,3 C 7,8 C 16,2 km/h (3 Bft)
27/10/2012 16:10 9,1 C 94 % 997,7 hPa 0,0 mm 7,2 km/h (2 Bft) N-NE 22 0 min 0 W/m 8,2 C 8,1 C 7,2 km/h (2 Bft)
27/10/2012 16:20 8,9 C 94 % 997,8 hPa 0,0 mm 9,7 km/h (2 Bft) N 360 0 min 0 W/m 8,0 C 7,4 C 12,6 km/h (3 Bft)
27/10/2012 16:30 8,9 C 94 % 997,8 hPa 0,0 mm 2,2 km/h (1 Bft) N 360 0 min 0 W/m 8,0 C 8,9 C 3,6 km/h (1 Bft)
27/10/2012 16:40 8,7 C 94 % 997,9 hPa 0,0 mm 9,0 km/h (2 Bft) N 360 0 min 0 W/m 7,8 C 7,3 C 14,4 km/h (3 Bft)
27/10/2012 16:50 8,5 C 94 % 998,0 hPa 0,0 mm 10,1 km/h (2 Bft) NE 45 0 min 0 W/m 7,6 C 6,8 C 10,8 km/h (2 Bft)
27/10/2012 17:00 8,3 C 93 % 998,1 hPa 0,0 mm 6,1 km/h (2 Bft) N-NE 22 0 min 0 W/m 7,2 C 7,5 C 6,1 km/h (2 Bft)
27/10/2012 17:10 8,1 C 93 % 998,2 hPa 0,0 mm 6,1 km/h (2 Bft) N 360 0 min 0 W/m 7,0 C 7,3 C 13,0 km/h (3 Bft)
27/10/2012 17:20 7,9 C 94 % 998,2 hPa 0,0 mm 8,3 km/h (2 Bft) NO 315 0 min 0 W/m 7,0 C 6,5 C 20,5 km/h (4 Bft)
27/10/2012 17:30 7,8 C 94 % 998,4 hPa 0,0 mm 13,3 km/h (3 Bft) N 360 0 min 0 W/m 6,9 C 5,4 C 19,1 km/h (3 Bft)
27/10/2012 17:40 7,6 C 94 % 998,5 hPa 0,0 mm 3,2 km/h (1 Bft) N 360 0 min 0 W/m 6,7 C 7,6 C 6,1 km/h (2 Bft)
27/10/2012 17:50 7,4 C 94 % 998,5 hPa 0,1 mm 11,9 km/h (2 Bft) NE 45 0 min 0 W/m 6,5 C 5,2 C 20,2 km/h (4 Bft)
27/10/2012 18:00 7,2 C 94 % 998,6 hPa 0,0 mm 6,1 km/h (2 Bft) NO 315 0 min 0 W/m 6,3 C 6,2 C 10,8 km/h (2 Bft)
27/10/2012 18:10 6,9 C 94 % 998,7 hPa 0,0 mm 10,4 km/h (2 Bft) N-NE 22 0 min 0 W/m 6,0 C 4,8 C 12,6 km/h (3 Bft)
27/10/2012 18:20 6,6 C 93 % 998,8 hPa 0,0 mm 7,9 km/h (2 Bft) NO 315 0 min 0 W/m 5,6 C 5,0 C 7,9 km/h (2 Bft)
27/10/2012 18:30 6,3 C 93 % 998,9 hPa 0,0 mm 6,5 km/h (2 Bft) N 360 0 min 0 W/m 5,3 C 5,1 C 10,8 km/h (2 Bft)
27/10/2012 18:40 6,3 C 93 % 998,9 hPa 0,0 mm 11,5 km/h (2 Bft) N 360 0 min 0 W/m 5,3 C 3,9 C 12,6 km/h (3 Bft)
27/10/2012 18:50 6,1 C 93 % 999,0 hPa 0,0 mm 15,8 km/h (3 Bft) N 360 0 min 0 W/m 5,1 C 3,0 C 21,2 km/h (4 Bft)
27/10/2012 19:00 6,1 C 93 % 999,1 hPa 0,0 mm 7,9 km/h (2 Bft) N-NE 22 0 min 0 W/m 5,1 C 4,5 C 15,8 km/h (3 Bft)
27/10/2012 19:10 5,9 C 93 % 999,3 hPa 0,0 mm 10,1 km/h (2 Bft) NE 45 0 min 0 W/m 4,9 C 3,7 C 18,4 km/h (3 Bft)
27/10/2012 19:20 5,8 C 93 % 999,3 hPa 0,0 mm 9,4 km/h (2 Bft) N 360 0 min 0 W/m 4,8 C 3,7 C 10,1 km/h (2 Bft)
27/10/2012 19:30 5,7 C 93 % 999,4 hPa 0,0 mm 10,4 km/h (2 Bft) N-NO 337 0 min 0 W/m 4,7 C 3,4 C 15,5 km/h (3 Bft)
27/10/2012 19:40 5,6 C 93 % 999,4 hPa 0,0 mm 9,0 km/h (2 Bft) N-NO 337 0 min 0 W/m 4,6 C 3,6 C 11,2 km/h (2 Bft)
27/10/2012 19:50 5,6 C 93 % 999,6 hPa 0,0 mm 11,9 km/h (2 Bft) N 360 0 min 0 W/m 4,6 C 3,0 C 23,0 km/h (4 Bft)
27/10/2012 20:00 5,5 C 93 % 999,7 hPa 0,0 mm 15,1 km/h (3 Bft) NE 45 0 min 0 W/m 4,5 C 2,4 C 15,5 km/h (3 Bft)
27/10/2012 20:10 5,4 C 93 % 999,7 hPa 0,0 mm 15,1 km/h (3 Bft) NE 45 0 min 0 W/m 4,4 C 2,2 C 28,1 km/h (5 Bft)
27/10/2012 20:20 5,3 C 93 % 999,8 hPa 0,0 mm 7,6 km/h (2 Bft) N 360 0 min 0 W/m 4,3 C 3,6 C 12,2 km/h (2 Bft)
27/10/2012 20:30 5,2 C 93 % 1000,0 hPa 0,0 mm 6,1 km/h (2 Bft) E-NE 67 0 min 0 W/m 4,2 C 3,9 C 6,1 km/h (2 Bft)
27/10/2012 20:40 5,1 C 92 % 1000,1 hPa 0,0 mm 9,0 km/h (2 Bft) N-NO 337 0 min 0 W/m 3,9 C 3,0 C 23,4 km/h (4 Bft)
27/10/2012 20:50 5,0 C 92 % 1000,2 hPa 0,0 mm 0,4 km/h (0 Bft) N-NO 337 0 min 0 W/m 3,8 C 5,0 C 4,3 km/h (1 Bft)
27/10/2012 21:00 4,9 C 92 % 1000,3 hPa 0,0 mm 6,5 km/h (2 Bft) NE 45 0 min 0 W/m 3,7 C 3,4 C 12,2 km/h (2 Bft)
27/10/2012 21:10 4,8 C 92 % 1000,5 hPa 0,0 mm 16,2 km/h (3 Bft) N-NE 22 0 min 0 W/m 3,6 C 1,3 C 25,9 km/h (4 Bft)
27/10/2012 21:20 4,6 C 91 % 1000,7 hPa 0,0 mm 4,3 km/h (1 Bft) NE 45 0 min 0 W/m 3,3 C 4,6 C 11,2 km/h (2 Bft)
27/10/2012 21:30 4,4 C 91 % 1000,9 hPa 0,0 mm 7,6 km/h (2 Bft) N-NE 22 0 min 0 W/m 3,1 C 2,5 C 13,7 km/h (3 Bft)
27/10/2012 21:40 4,2 C 91 % 1001,0 hPa 0,0 mm 15,5 km/h (3 Bft) N 360 0 min 0 W/m 2,9 C 0,7 C 32,0 km/h (5 Bft)
27/10/2012 21:50 4,1 C 90 % 1001,1 hPa 0,0 mm 7,6 km/h (2 Bft) N 360 0 min 0 W/m 2,6 C 2,2 C 14,4 km/h (3 Bft)
27/10/2012 22:00 3,9 C 90 % 1001,3 hPa 0,0 mm 3,6 km/h (1 Bft) N-NO 337 0 min 0 W/m 2,4 C 3,9 C 3,6 km/h (1 Bft)
27/10/2012 22:10 3,9 C 90 % 1001,4 hPa 0,0 mm 3,2 km/h (1 Bft) N-NE 22 0 min 0 W/m 2,4 C 3,9 C 9,0 km/h (2 Bft)
27/10/2012 22:20 3,8 C 90 % 1001,6 hPa 0,0 mm 8,3 km/h (2 Bft) NO 315 0 min 0 W/m 2,3 C 1,6 C 8,3 km/h (2 Bft)
27/10/2012 22:30 3,8 C 89 % 1001,8 hPa 0,0 mm 5,4 km/h (2 Bft) N 360 0 min 0 W/m 2,2 C 2,6 C 12,2 km/h (2 Bft)
27/10/2012 22:40 3,5 C 88 % 1002,0 hPa 0,0 mm 5,4 km/h (2 Bft) E 90 0 min 0 W/m 1,7 C 2,2 C 9,4 km/h (2 Bft)
27/10/2012 22:50 3,2 C 87 % 1002,2 hPa 0,0 mm 10,1 km/h (2 Bft) O-NO 292 0 min 0 W/m 1,2 C 0,5 C 11,5 km/h (2 Bft)
27/10/2012 23:00 2,8 C 86 % 1002,3 hPa 0,0 mm 8,6 km/h (2 Bft) N-NO 337 0 min 0 W/m 0,7 C 0,4 C 17,6 km/h (3 Bft)
27/10/2012 23:10 2,4 C 85 % 1002,5 hPa 0,0 mm 3,2 km/h (1 Bft) N 360 0 min 0 W/m 0,1 C 2,4 C 12,6 km/h (3 Bft)
27/10/2012 23:20 2,1 C 86 % 1002,7 hPa 0,0 mm 1,4 km/h (1 Bft) NO 315 0 min 0 W/m 0,0 C 2,1 C 3,6 km/h (1 Bft)
27/10/2012 23:30 1,8 C 86 % 1002,9 hPa 0,0 mm 7,9 km/h (2 Bft) E-NE 67 0 min 0 W/m -0,3 C -0,6 C 7,9 km/h (2 Bft)
27/10/2012 23:40 1,5 C 86 % 1003,2 hPa 0,0 mm 4,3 km/h (1 Bft) NE 45 0 min 0 W/m -0,6 C 1,5 C 6,5 km/h (2 Bft)
27/10/2012 23:50 1,3 C 85 % 1003,4 hPa 0,0 mm 9,0 km/h (2 Bft) E-NE 67 0 min 0 W/m -0,9 C -1,5 C 13,7 km/h (3 Bft)
_ Min-Heure 23:50 23:50 09:20 - 14:10 - - - - 23:50 23:50 14:10
Minimum _ 1,3 C 85 % 996,6 hPa - 0,0 km/h (0 Bft) - - - - -0,9 C -1,5 C 0,0 km/h (0 Bft)
_ Max-Heure 04:20 18:10 23:50 10:00 21:10 - - 23:50 23:50 04:00 04:20 21:40
Maximum _ 15,4 C 94 % 1003,4 hPa 0,1 mm 16,2 km/h
N-NE (3 Bft)
- - 0 min 0 W/m 13,7 C 15,4 C 32,0 km/h
N (5 Bft)
Moyenne _ 10,2 C 91 % 998,8 hPa #0,7 mm 4,6 km/h (1 Bft) N-NE - #0 min. 0 W/m 8,8 C 9,6 C 8,2 km/h (2 Bft)
Saint Bonnet de Bellac- Haute Vienne - France